Flag for Germany Weather past 2 weeks in Kulmbach, Bavaria, Germany

Now
48 °F

Overcast.


Feels Like: 47 °F
Forecast: 38 / 65 °F
Wind: 3 mph from North

Location: Hof

Current Time: May 27, 2015 at 3:05:28 PM

Latest Report: May 27, 2015 at 2:00 PM


Visibility: 28 mi

Pressure: 30.20 "Hg

Humidity: 60%

Dew point: 35 °F

Location of KulmbachLocation

Historic Weather in Kulmbach — Graph

°F

Kulmbach temperature yesterday

Maximum temperature yesterday: 52 °F (at 12:00 PM)
Minimum temperature yesterday: 45 °F (at 7:00 AM)
Average temperature yesterday: 49 °F

Past Weeks' High & Low Weather Summary

 TemperatureHumidityPressure
High77 °F (May 12, 6:00 PM)100% (May 21, 2:00 AM)30.38 "Hg (May 21, 2:00 AM)
Low36 °F (May 22, 6:00 AM)30% (May 13, 2:00 PM)29.68 "Hg (May 18, 8:00 PM)
Average52 °F67%30.04 "Hg
* Reported May 12 2:00 PM — May 27 2:00 PM, Kulmbach, Weather by CustomWeather, © 2015

Note: Actual official high and low records may vary slightly from our data, if they occured in-between our weather recording intervals... More about our weather records

Advertising

Kulmbach weather history for previous 24 hours

 ConditionsComfort  
Time TempWeatherWind HumidityBarometerVisibility
2:00 PM
Wed, May 27
48 °FOvercast.3 mph60%30.20 "Hg28 mi
1:00 PM47 °FOvercast.3 mph65%30.21 "Hg25 mi
12:00 PM47 °FOvercast.5 mph61%30.21 "Hg19 mi
10:00 AM46 °FOvercast.5 mph65%30.22 "Hg25 mi
9:00 AM44 °FOvercast.5 mph77%30.22 "Hg19 mi
8:00 AM43 °FOvercast.2 mph87%30.21 "Hg12 mi
7:00 AM43 °FOvercast.1 mph86%30.21 "Hg14 mi
6:00 AM41 °FScattered clouds.2 mph89%30.21 "Hg13 mi
5:00 AM43 °FOvercast.2 mph86%30.18 "Hg17 mi
4:00 AM44 °FOvercast.2 mph86%30.17 "Hg17 mi
3:00 AM44 °FOvercast.2 mph84%30.18 "Hg18 mi
2:00 AM44 °FOvercast.2 mph81%30.17 "Hg28 mi
1:00 AM45 °FOvercast.3 mph78%30.16 "Hg25 mi
12:00 AM46 °FOvercast.3 mph76%30.15 "Hg25 mi
11:00 PM
Tue, May 26
47 °FOvercast.2 mph72%30.14 "Hg31 mi
10:00 PM47 °FOvercast.2 mph69%30.13 "Hg28 mi
9:00 PM48 °FOvercast.2 mph69%30.11 "Hg25 mi
8:00 PM49 °FOvercast.2 mph68%30.10 "Hg25 mi
7:00 PM49 °FOvercast.3 mph66%30.08 "Hg22 mi
6:00 PM49 °FOvercast.7 mph69%30.08 "Hg22 mi
5:00 PM49 °FOvercast.5 mph63%30.07 "Hg19 mi
4:00 PM50 °FOvercast.7 mph69%30.06 "Hg16 mi
3:00 PM51 °FOvercast.5 mph61%30.04 "Hg22 mi
Weather by CustomWeather, © 2015

See weather overviewHow to use our weather pages